sat.trackr.live / text

‹ back to catalog

STARLINK-2460

NORAD 48120 · 2021-027AE

PAYLOAD ACTIVE UNKNOWN

§ Identity

Operator
Country
US
Launch date
2021-04-07
Launch site
AFETR
Launch vehicle
Mass (kg)
RCS (m²)

Purposes: comms

External: N2YO · Heavens-Above · Gunter

§ Orbital elements

Epoch: 2026-05-25T01:43:16.855968Z

Period
93.42 min
Inclination
53.1587°
Eccentricity
0.0002124
Mean motion
15.41387321 rev/d
Perigee alt
440.6 km
Apogee alt
443.5 km
Semi-major
6,820.2 km
B*
3.6204e-4
RAAN
170.5776°
Arg perigee
55.8736°
Mean anomaly
304.2470°
Rev number
28,421

§ Raw data

STARLINK-24601 48120U 21027AE  26145.07172287  .00014975  00000+0  36204-3 0  99922 48120  53.1587 170.5776 0002124  55.8736 304.2470 15.41387321284214

JSON: /api/v1/satellites/48120 · /tle

For live sub-satellite position, see the globe view (requires WebGL).

§ Visibility from observer

Set your observer location to see the next 7 days of passes ≥ 10°. The values pass through the URL so the page stays shareable.

No JS? Fill the form by hand. The geolocation button needs JavaScript.